Theta_e
312 310 311 312 312 311 312 311 311 314 313 314 315 313 313 314 313 312 315 316 317 317 317 317 316 315 314 313 312 310 309 307 306 305 303 301 301 301 300 300 299 299 298 298
313 312 311 312 311 312 311 312 312 312 311 311 312 313 313 311 313 315 313 315 316 315 316 316 315 315 314 313 312 310 309 307 307 305 304 303 303 301 300 299 298 298 297 298
312 312 313 313 313 313 313 312 313 312 312 310 310 311 312 312 312 315 315 316 316 315 316 315 315 314 313 312 312 310 309 308 307 306 304 302 299 298 298 298 297 297 297 297
311 312 312 312 312 312 313 311 312 312 312 313 310 314 311 312 311 311 313 316 316 316 315 314 314 314 313 313 311 310 309 308 307 305 303 303 303 303 303 302 300 298 297 296
311 312 310 311 312 311 313 312 312 313 312 312 314 313 314 311 311 311 312 314 316 316 315 314 313 313 313 312 311 310 308 307 306 306 304 304 302 301 301 301 299 297 296 296
308 311 312 311 310 310 310 311 311 310 309 313 311 312 312 310 311 311 311 314 316 317 314 313 313 313 312 311 310 309 308 307 307 306 305 304 303 302 299 298 297 297 296 296
309 309 308 310 311 309 310 310 311 311 310 314 310 310 314 311 310 310 311 315 316 316 313 313 313 313 312 311 309 308 307 307 306 306 307 306 304 302 300 299 298 297 296 295
310 310 308 308 311 310 308 311 311 310 313 314 308 310 311 310 311 314 315 317 316 312 313 314 313 312 311 310 309 308 307 307 307 307 307 306 304 302 300 298 299 297 297 296
310 310 309 308 309 310 309 311 310 311 297 308 313 311 310 310 309 307 308 308 311 313 313 313 312 311 310 310 310 310 309 309 308 307 307 307 305 303 301 299 298 296 296 295
311 311 310 307 307 307 309 308 311 310 310 308 313 310 313 312 313 312 306 306 310 312 312 311 311 311 311 311 311 310 309 309 309 307 306 307 307 304 302 299 298 296 294 293
308 311 312 306 307 309 306 309 309 309 310 314 314 313 308 310 311 311 306 308 310 311 311 311 311 311 311 310 310 309 309 308 307 306 306 306 306 304 302 300 297 295 293 292
310 311 312 311 307 306 309 309 310 312 312 309 312 313 312 309 307 308 308 310 311 311 312 312 312 312 312 311 310 310 309 308 309 308 305 304 303 303 301 299 297 295 292 291
312 311 315 314 312 306 308 307 308 309 309 312 314 313 312 311 311 308 307 309 310 312 312 312 311 312 311 311 311 310 310 309 308 306 306 303 302 301 301 300 297 294 292 291
312 310 313 317 315 313 312 311 309 310 312 313 313 312 311 311 311 311 311 311 311 311 311 311 312 312 311 311 311 311 310 309 309 307 306 304 303 302 300 299 296 294 292 290
312 311 311 312 313 313 314 314 313 312 312 314 314 313 311 310 310 310 310 311 310 310 309 310 311 311 312 311 311 310 310 309 309 307 305 304 303 301 299 298 295 293 292 290
310 314 314 314 312 312 313 313 312 312 312 313 312 313 313 313 313 312 313 312 311 310 310 311 311 311 312 312 312 312 310 309 308 307 305 303 302 300 299 296 294 292 291 289
312 311 314 316 313 312 313 313 313 312 312 312 313 312 311 312 312 312 312 312 311 311 311 311 311 312 312 312 311 311 310 309 308 306 304 303 301 300 297 296 293 292 291 289
311 310 311 315 314 316 312 310 310 311 311 311 311 311 311 311 312 312 311 311 310 311 311 311 311 312 312 310 310 310 310 309 307 305 303 302 301 298 297 294 292 290 289 289
310 312 313 315 315 314 312 310 310 311 311 310 310 310 307 303 309 310 304 305 304 303 304 304 306 308 309 309 308 308 308 308 306 305 304 302 300 298 296 293 291 290 288 287
310 311 313 314 316 316 313 308 307 309 312 300 299 299 299 299 302 302 298 300 300 299 298 299 303 305 305 305 306 307 307 307 307 306 303 300 298 297 295 293 292 289 288 286
305 308 310 312 313 311 301 299 302 311 300 296 298 297 296 297 297 296 295 295 295 296 295 295 296 296 298 301 303 303 305 305 305 304 303 299 297 295 294 292 290 289 287 285
301 300 301 301 306 309 297 296 294 294 295 296 293 293 292 292 292 292 292 292 293 293 293 293 294 296 298 296 298 304 301 301 301 300 299 297 295 294 291 289 288 286 285 284
300 294 295 297 294 291 295 292 293 294 294 293 292 290 290 291 291 291 291 292 292 293 293 294 295 295 296 296 300 300 303 302 299 297 297 295 294 291 288 287 286 285 283 283
291 291 291 290 290 290 290 290 290 290 289 289 289 288 287 288 289 290 291 291 292 292 292 292 294 293 295 296 299 301 301 301 303 299 295 293 290 289 288 284 284 284 283 282
290 290 288 289 289 289 290 290 288 287 287 286 286 286 285 285 286 286 287 287 288 289 290 291 292 292 293 293 293 294 295 298 300 301 302 299 293 289 285 284 284 282 282 283
290 290 289 289 290 287 288 287 285 284 282 282 282 282 282 281 280 280 282 282 283 284 286 288 290 291 291 292 293 294 295 295 296 295 295 293 290 285 287 285 281 280 281 281
Wind_Speed
9 4 10 22 17 6 5 6 8 18 10 10 17 18 20 28 23 25 38 42 44 49 50 44 40 38 42 42 42 42 42 40 38 39 40 40 40 37 36 33 32 30 27 24
2 11 18 3 9 9 11 14 15 15 11 10 15 21 17 11 18 28 30 41 48 47 44 37 33 34 44 46 44 43 42 40 40 39 40 41 38 37 34 32 32 30 28 26
18 10 19 12 9 10 19 14 18 18 10 6 9 10 13 11 20 31 37 47 50 44 41 35 32 34 42 47 47 44 41 40 39 38 38 40 37 35 36 38 36 34 31 30
11 14 12 7 7 12 21 10 13 12 3 13 4 14 9 7 13 11 26 39 44 42 37 31 32 34 42 47 45 41 38 38 38 38 40 42 44 44 44 41 37 34 33 32
10 4 8 12 24 11 19 3 5 2 5 5 6 7 4 9 9 11 16 35 44 42 35 27 30 31 41 44 43 38 36 38 39 39 41 43 45 44 41 37 35 35 34 33
10 1 4 8 2 6 3 1 0 3 3 12 8 9 4 7 11 7 15 32 35 33 27 23 28 33 40 40 39 38 39 40 40 39 41 43 44 44 41 39 38 38 37 35
2 13 7 6 4 2 2 5 4 4 1 13 12 11 22 7 7 11 12 26 31 33 20 16 30 34 35 40 40 40 42 43 42 41 41 41 43 43 42 41 42 41 40 39
3 14 13 8 18 11 10 11 7 7 11 22 3 8 6 12 15 26 33 33 34 21 17 24 24 27 30 36 40 41 44 45 44 44 43 41 42 42 42 43 43 43 41 38
7 11 1 2 2 8 4 6 9 1 2 2 11 13 8 4 10 10 21 17 20 22 23 26 24 24 25 33 39 42 43 46 47 48 46 44 44 43 44 43 43 42 40 37
6 11 8 4 4 1 6 2 2 2 3 7 17 4 15 14 22 20 6 12 18 18 19 21 21 22 23 28 34 42 43 46 49 50 49 48 46 44 44 43 43 43 42 41
7 7 19 5 6 9 1 4 4 2 5 14 18 15 6 5 3 3 7 12 14 13 16 18 19 21 22 29 35 40 43 46 49 52 52 52 51 49 46 44 44 44 43 42
4 4 5 9 6 4 4 8 11 10 11 5 7 15 22 12 9 5 9 9 12 7 10 20 20 21 32 33 34 39 42 47 47 50 54 55 54 52 49 46 44 43 42 41
5 4 5 9 13 4 7 6 7 6 2 13 15 15 23 22 23 15 10 14 24 40 43 31 26 32 36 35 37 40 43 46 47 49 53 55 56 53 51 49 46 42 42 42
14 9 12 17 17 10 10 11 11 15 14 24 21 30 28 34 29 25 31 42 44 44 39 32 28 34 39 41 42 45 47 46 47 49 52 55 55 54 52 50 47 42 41 42
11 12 19 26 30 29 29 29 28 26 23 19 26 22 26 32 22 26 38 41 39 36 25 24 31 35 35 42 42 46 47 49 50 51 52 53 53 52 52 52 46 41 40 42
9 15 17 23 26 29 31 31 28 30 31 27 32 32 35 37 48 38 46 37 32 34 37 39 37 37 40 42 45 49 51 53 51 52 52 52 51 52 53 51 45 42 41 43
12 8 13 28 22 24 24 34 35 32 27 23 28 35 36 32 27 30 44 37 35 39 40 40 38 33 34 42 42 44 45 47 52 52 51 50 49 50 52 49 46 45 43 43
19 15 10 16 15 20 15 20 30 34 33 34 34 29 27 28 38 47 40 31 36 40 41 37 36 39 42 36 33 33 38 41 45 47 47 47 47 49 49 47 46 45 43 44
22 22 13 18 20 23 3 11 22 18 31 27 24 23 15 30 26 32 26 27 30 36 33 27 26 31 31 28 27 26 30 33 38 41 44 47 47 47 48 47 46 44 44 45
13 19 17 19 25 30 17 8 18 9 13 14 13 14 14 18 9 9 45 39 41 43 41 38 36 29 19 21 23 23 25 30 32 35 40 42 44 46 46 45 45 45 42 44
17 14 18 21 19 13 14 20 19 7 10 24 20 16 17 12 10 30 39 45 47 41 46 44 39 37 35 32 24 22 24 27 29 32 35 38 41 43 43 44 44 44 45 47
5 5 6 5 8 9 21 11 10 11 17 19 30 23 23 25 30 29 36 40 44 45 46 44 40 39 35 37 34 23 24 25 29 30 33 36 39 42 44 43 44 45 46 50
6 3 4 5 6 17 15 25 14 9 13 15 19 30 27 29 31 32 33 36 39 38 41 40 35 36 36 33 35 35 34 26 27 30 32 35 36 39 42 42 45 45 50 51
6 10 4 11 7 19 27 24 21 27 29 33 30 36 35 32 32 37 36 36 40 42 41 40 40 40 38 29 28 31 36 37 35 32 33 37 37 40 40 41 44 47 53 50
8 10 6 13 13 19 21 20 23 28 24 28 35 37 36 29 33 34 38 40 38 39 41 41 44 42 43 43 36 37 38 43 42 38 38 39 40 41 41 43 47 52 51 46
11 13 11 14 22 11 24 30 21 20 22 23 29 34 43 41 38 39 37 39 39 37 37 39 42 42 44 47 45 38 41 45 47 45 42 44 46 47 46 46 49 51 48 43
Wind_Direction
198 148 208 225 202 224 237 256 238 268 259 205 240 240 251 255 257 249 258 264 265 268 274 271 267 258 243 236 233 232 231 228 227 226 221 223 226 227 231 232 233 234 235 236
252 218 227 220 208 227 248 259 264 278 270 198 251 252 254 240 248 251 243 256 262 265 270 270 261 253 235 233 230 230 231 230 229 229 227 228 231 231 235 237 236 236 236 237
221 222 219 225 239 261 248 248 258 255 291 238 283 267 251 244 244 249 255 259 264 262 265 265 253 244 229 225 227 229 231 231 230 230 227 227 226 230 231 232 234 235 236 236
247 235 221 194 211 208 262 224 256 270 281 274 136 290 220 239 236 238 247 255 259 265 264 261 245 235 226 226 226 231 233 230 229 229 226 227 228 228 232 237 239 238 237 237
233 212 207 226 233 197 263 210 246 228 241 316 176 283 209 192 235 243 244 252 264 268 268 247 234 232 222 222 225 230 232 228 227 228 228 229 231 234 237 239 237 236 236 236
249 233 229 209 157 190 130 123 4 27 59 264 180 210 180 193 218 230 244 254 260 260 257 243 231 221 220 222 225 228 226 226 226 227 230 231 233 235 234 234 233 234 235 235
262 222 206 158 194 313 154 85 304 314 359 258 183 220 254 284 230 214 225 240 237 244 249 233 213 214 220 223 224 224 224 224 224 226 229 232 234 235 234 236 238 235 234 234
258 285 154 189 204 190 196 184 176 214 264 278 120 249 253 226 236 240 236 240 239 241 219 228 214 222 224 224 224 223 224 225 225 226 228 231 235 236 236 236 239 238 238 238
207 260 12 170 106 148 176 176 215 339 94 334 262 272 291 292 276 273 246 240 234 232 212 218 224 229 229 226 226 225 226 226 227 227 228 231 235 236 236 236 239 239 239 237
240 269 207 156 128 1 174 170 86 247 211 243 270 258 270 284 280 280 244 216 209 204 214 219 231 237 238 238 236 233 232 234 232 230 230 232 236 236 238 238 240 238 237 235
352 281 271 109 196 180 127 253 230 262 193 247 262 273 220 193 236 308 245 228 216 221 236 244 241 244 246 245 242 239 237 238 237 238 236 235 235 235 236 239 239 238 236 234
152 307 292 258 260 240 198 214 211 238 257 231 267 266 270 313 325 330 304 246 206 213 281 279 264 277 273 256 247 246 245 243 244 243 240 238 237 237 238 240 239 238 235 234
151 208 250 293 288 218 206 209 219 243 224 246 263 264 274 281 284 288 274 259 288 297 293 289 277 266 260 254 252 250 249 251 248 245 243 240 239 238 239 240 239 236 234 233
174 199 213 241 239 273 272 269 260 251 252 255 245 259 265 263 257 267 265 259 265 274 278 277 271 269 262 262 262 261 252 251 249 247 244 241 240 241 239 241 238 234 234 232
188 234 218 229 242 252 250 255 247 243 240 241 253 249 256 261 274 264 265 267 267 269 273 261 270 269 271 270 266 263 256 252 251 248 244 242 241 240 240 240 236 234 233 232
201 236 228 239 230 235 244 248 250 250 248 252 252 256 250 261 265 271 270 277 280 278 270 265 267 272 270 270 270 267 262 256 251 247 245 241 239 238 238 236 233 230 230 228
220 221 232 249 231 235 241 233 237 242 245 245 245 239 245 260 259 261 271 277 276 276 276 275 277 270 278 285 279 270 264 259 253 247 242 240 237 238 235 235 231 228 226 225
269 265 249 261 254 238 230 222 232 245 248 251 254 259 252 255 267 268 276 296 305 300 290 286 286 290 297 297 288 271 261 256 250 243 242 241 238 235 235 232 229 227 224 222
231 247 258 260 253 257 284 222 231 235 249 260 286 286 324 348 305 275 11 347 340 347 357 345 319 306 302 301 296 271 256 249 246 242 242 240 237 234 232 229 227 226 223 221
268 249 247 252 259 263 283 28 351 324 251 20 23 14 356 354 13 339 338 332 326 328 332 338 342 344 333 325 313 288 263 248 246 248 243 239 236 235 233 230 227 224 222 220
274 286 263 259 264 274 341 9 348 271 350 318 1 0 358 348 331 309 315 314 309 311 317 322 324 324 326 332 330 302 282 269 256 249 246 242 238 235 233 229 225 222 216 214
282 315 289 321 282 274 27 49 16 298 294 320 322 333 329 316 311 306 304 301 302 307 313 315 315 313 316 318 316 315 296 281 265 256 250 244 239 235 230 225 223 218 215 211
255 4 288 309 324 305 314 319 326 322 317 311 316 322 322 318 318 314 311 306 305 306 311 311 310 307 302 307 311 306 300 296 281 267 258 248 241 236 231 226 222 215 213 211
273 314 294 306 274 298 306 316 324 334 333 326 326 320 319 311 307 304 304 298 298 301 304 306 304 301 297 294 295 291 285 277 273 269 261 251 242 235 229 226 224 219 212 210
267 299 266 280 279 297 296 310 326 321 315 320 317 317 316 313 307 304 302 300 296 296 296 295 291 291 289 293 288 281 276 275 265 256 257 255 248 239 231 225 220 215 214 214
253 262 270 279 295 306 301 313 326 321 324 319 317 310 309 309 307 306 301 301 302 299 295 289 285 284 286 288 288 283 279 272 263 253 244 239 237 232 222 219 212 211 209 210